sat.trackr.live / text

‹ back to catalog

STARLINK-1551

NORAD 46075 · 2020-055BA

PAYLOAD ACTIVE UNKNOWN

§ Identity

Operator
Country
US
Launch date
2020-08-07
Launch site
AFETR
Launch vehicle
Mass (kg)
RCS (m²)

Purposes: comms

External: N2YO · Heavens-Above · Gunter

§ Orbital elements

Epoch: 2026-05-25T03:46:49.227744Z

Period
94.11 min
Inclination
53.1611°
Eccentricity
0.0001260
Mean motion
15.30178832 rev/d
Perigee alt
474.4 km
Apogee alt
476.1 km
Semi-major
6,853.4 km
B*
-2.4693e-5
RAAN
105.8788°
Arg perigee
76.5325°
Mean anomaly
283.5816°
Rev number
32,094

§ Raw data

STARLINK-15511 46075U 20055BA  26145.15751421 -.00001090  00000+0 -24693-4 0  99972 46075  53.1611 105.8788 0001260  76.5325 283.5816 15.30178832320944

JSON: /api/v1/satellites/46075 · /tle

For live sub-satellite position, see the globe view (requires WebGL).

§ Visibility from observer

Set your observer location to see the next 7 days of passes ≥ 10°. The values pass through the URL so the page stays shareable.

No JS? Fill the form by hand. The geolocation button needs JavaScript.